EW4543 Weather Reports


Display with metric or nautical units.
time (UTC)temp
F
wind
direction
speed
MPH
gust
MPH
rain 1hr
in
rain 24hr
in
rain mn
in
humidity
%
barometer
mb
20210723213041 96 326 1.0 5.0 0.00 0.09 0.07 13 1009.9
20210723211513 97 118 2.0 5.0 0.00 0.09 0.07 12 1009.9
20210723210010 98 300 1.0 5.0 0.00 0.09 0.07 12 1009.8
20210723204524 97 298 2.0 4.0 0.00 0.09 0.07 13 1009.9
20210723203014 96 290 3.0 7.0 0.00 0.09 0.07 14 1010.0
20210723201508 97 173 1.0 5.0 0.00 0.09 0.07 15 1009.8
20210723200009 96 295 1.0 4.0 0.01 0.09 0.07 15 1009.8
20210723194506 96 255 2.0 5.0 0.02 0.09 0.07 16 1009.8
20210723193154 94 251 2.0 7.0 0.02 0.09 0.07 17 1009.8
20210723191649 94 239 1.0 5.0 0.02 0.09 0.07 18 1009.8
20210723190139 94 175 1.0 4.0 0.01 0.08 0.06 18 1009.9
20210723184719 94 335 1.0 3.0 0.01 0.10 0.05 15 1009.8
20210723183151 92 256 1.0 3.0 0.01 0.10 0.05 17 1009.8
20210723181627 92 293 1.0 5.0 0.03 0.10 0.05 17 1009.8
20210723180101 93 224 1.0 4.0 0.05 0.10 0.05 18 1009.8
20210723174623 92 226 1.0 4.0 0.04 0.11 0.04 19 1009.8
20210723173111 92 204 0.0 2.0 0.04 0.11 0.04 19 1009.8
20210723171632 91 199 0.0 3.0 0.02 0.09 0.02 19 1009.9
20210723170147 92 250 1.0 3.0 0.00 0.07 0.00 19 1010.0
20210723164630 90 126 0.0 2.0 0.00 0.07 0.00 21 1010.0
20210723163130 87 148 0.0 2.0 0.00 0.07 0.00 27 1010.1
20210723161605 84 113 0.0 2.0 0.00 0.07 0.00 27 1010.2
20210723160049 79 155 0.0 1.0 0.00 0.07 0.00 32 1010.2
20210723154547 76 243 0.0 0.0 0.00 0.07 0.00 38 1010.1
20210723153036 73 256 0.0 0.0 0.00 0.07 0.00 39 1010.2
20210723151541 71 256 0.0 0.0 0.00 0.07 0.00 39 1010.1
20210723150106 68 256 0.0 0.0 0.00 0.07 0.00 41 1010.1
20210723144510 66 256 0.0 0.0 0.00 0.07 0.00 43 1010.0
20210723143016 64 256 0.0 0.0 0.00 0.07 0.00 43 1010.0
20210723141507 63 256 0.0 0.0 0.00 0.07 0.00 43 1009.9
20210723140018 62 256 0.0 0.0 0.00 0.07 0.00 44 1009.8
20210723134507 62 256 0.0 0.0 0.00 0.07 0.00 43 1009.6
20210723133014 62 256 0.0 0.0 0.00 0.07 0.00 43 1009.5
20210723131513 62 256 0.0 0.0 0.00 0.07 0.00 44 1009.3
20210723130004 61 256 0.0 0.0 0.00 0.07 0.00 44 1009.1
20210723124724 61 256 0.0 0.0 0.00 0.07 0.00 44 1009.0
20210723123213 60 256 0.0 0.0 0.00 0.07 0.00 45 1009.0
20210723121655 60 256 0.0 0.0 0.00 0.07 0.00 44 1009.0
20210723120129 60 256 0.0 0.0 0.00 0.07 0.00 44 1009.0
20210723114751 60 256 0.0 0.0 0.00 0.07 0.00 44 1009.0
20210723113214 60 256 0.0 0.0 0.00 0.07 0.00 44 1009.0
20210723111845 61 256 0.0 0.0 0.00 0.07 0.00 43 1009.1
20210723110210 61 256 0.0 0.0 0.00 0.07 0.00 43 1009.1
20210723104713 61 256 0.0 0.0 0.00 0.07 0.00 43 1009.3
20210723103120 61 256 0.0 0.0 0.00 0.07 0.00 43 1009.4
20210723101855 61 256 0.0 0.0 0.00 0.07 0.00 43 1009.4
20210723100123 61 256 0.0 0.0 0.00 0.07 0.00 43 1009.5
20210723094701 61 256 0.0 0.0 0.00 0.07 0.00 42 1009.6
20210723093119 62 256 0.0 0.0 0.00 0.07 0.00 42 1009.6
20210723091653 62 256 0.0 0.0 0.00 0.07 0.00 41 1009.4
20210723090117 62 256 0.0 0.0 0.00 0.07 0.00 40 1009.4
20210723084634 63 256 0.0 0.0 0.00 0.07 0.00 40 1009.4
20210723083052 63 256 0.0 0.0 0.00 0.07 0.00 39 1009.6
20210723081541 63 256 0.0 0.0 0.00 0.07 0.00 39 1009.6
20210723080056 64 256 0.0 0.0 0.00 0.07 0.00 38 1009.7
20210723074608 64 256 0.0 0.0 0.00 0.07 0.00 38 1009.8
20210723073040 65 256 0.0 0.0 0.00 0.07 0.00 38 1009.9
20210723071624 66 256 0.0 0.0 0.00 0.07 0.00 37 1009.9
20210723070048 66 256 0.0 0.0 0.00 0.07 0.00 36 1009.9
20210723064533 67 256 0.0 0.0 0.00 0.07 0.07 35 1009.9
20210723063028 68 256 0.0 0.0 0.00 0.07 0.07 34 1010.0
20210723061611 68 256 0.0 0.0 0.00 0.07 0.07 33 1010.0
20210723060029 69 256 0.0 0.0 0.00 0.07 0.07 32 1009.9
20210723054631 70 256 0.0 0.0 0.00 0.07 0.07 32 1009.9
20210723053103 70 256 0.0 0.0 0.00 0.07 0.07 30 1009.9
20210723051636 71 256 0.0 0.0 0.00 0.07 0.07 30 1009.8
20210723050135 72 256 0.0 0.0 0.00 0.07 0.07 30 1009.6
20210723044559 73 256 0.0 0.0 0.00 0.07 0.07 28 1009.4
20210723043025 74 256 0.0 0.0 0.00 0.07 0.07 28 1009.3
20210723041514 75 256 0.0 0.0 0.00 0.07 0.07 26 1009.1
20210723040009 76 256 0.0 0.0 0.00 0.07 0.07 25 1008.9
20210723034507 78 256 0.0 0.0 0.00 0.07 0.07 23 1008.8
20210723033026 79 256 0.0 1.0 0.00 0.07 0.07 21 1008.6
20210723031504 81 256 0.0 1.0 0.00 0.07 0.07 20 1008.4
20210723030013 83 256 0.0 0.0 0.00 0.07 0.07 19 1008.3
20210723024508 85 256 0.0 0.0 0.00 0.07 0.07 18 1008.3
20210723023006 87 256 0.0 0.0 0.00 0.07 0.07 16 1008.2
20210723021503 89 256 0.0 0.0 0.00 0.07 0.07 16 1008.2
20210723020001 90 223 0.0 2.0 0.00 0.07 0.07 13 1008.1
20210723013304 91 257 0.0 2.0 0.01 0.08 0.07 12 1007.8
20210723011634 91 237 0.0 2.0 0.01 0.08 0.07 11 1007.8
20210723010250 92 257 0.0 4.0 0.01 0.08 0.07 11 1007.9
20210723004847 92 160 1.0 5.0 0.01 0.08 0.07 11 1007.9
20210723003153 92 139 1.0 3.0 0.00 0.07 0.06 10 1008.0
20210723001656 93 260 2.0 5.0 0.00 0.07 0.06 10 1008.0
20210723000120 93 174 0.0 6.0 0.00 0.07 0.06 11 1008.0
20210722234712 93 330 1.0 4.0 0.00 0.07 0.06 11 1008.1
20210722233317 93 219 0.0 4.0 0.00 0.07 0.06 11 1008.0
20210722231634 93 290 1.0 5.0 0.01 0.07 0.06 12 1008.0
20210722230146 93 217 0.0 4.0 0.01 0.07 0.06 12 1008.0
20210722224709 94 214 0.0 5.0 0.01 0.13 0.06 11 1008.1
20210722223215 93 237 1.0 4.0 0.01 0.13 0.06 11 1008.1
20210722221727 93 291 3.0 7.0 0.00 0.12 0.05 12 1008.2
20210722220058 96 141 0.0 5.0 0.00 0.12 0.05 12 1008.2
20210722214635 94 335 1.0 6.0 0.00 0.12 0.05 12 1008.4